User: anonymous   Login
Location: Unspecified
(0.0000°N, 0.0000°E)
Time: 21:53:46
(UTC+00:00)
Language:

TIANHUI 5B - Orbit

View from above orbital plane
View from above orbital plane
View from above satellite
View from above satellite

Ground track
Ground track

The orbit is defined by the following mean orbital elements,

1 58201U          26145.40839708 +.00000000 +00000-0 +44642-4 0 00000
2 58201  97.8212 153.1088 0002151  97.8429 262.3031 14.87578081    07
Epoch (UTC): 25 May 2026 09:48:05
Eccentricity: 0.0002151
inclination: 97.8212°
perigee height: 604 km
apogee height: 607 km
right ascension of ascending node: 153.1088°
argument of perigee: 97.8429°
revolutions per day: 14.87578081
mean anomaly at epoch: 262.3031°

The dashed part of the orbit path shows where the satellite is in the earth's shadow,  

DLR